Regional Weather Roundup
Issued by NWS Upton, NY

Current Version | Previous Version | Graphics & Text | Print | Product List | Glossary Off
Versions: 1 2 3 4 5 6 7 8 9 10 11 12 13 14 15 16 17 18 19 20 21 22 23 24 25 26 27 28 29 30 31 32 33 34 35 36 37 38 39 40 41 42 43 44 45 46 47 48 49 50

000
ASUS41 KOKX 240804
RWROKX

REGIONAL WEATHER ROUNDUP
NATIONAL WEATHER SERVICE NEW YORK NY
400 AM EDT WED AUG 24 2016

NOTE: "FAIR" INDICATES FEW OR NO CLOUDS BELOW 12,000 FEET WITH NO
SIGNIFICANT WEATHER AND/OR OBSTRUCTIONS TO VISIBILITY.

NYZ071-072-176-178-NJZ106-104-240900-
NEW YORK CITY METRO AREA

CITY           SKY/WX    TMP DP  RH WIND       PRES   REMARKS
Central Park   CLEAR     69  57  65 CALM      30.29S
LaGuardia APRT CLEAR     72  59  63 SW5       30.25S
Kennedy INTL   CLEAR     70  64  81 W6        30.27S
Newark/Liberty CLEAR     65  58  78 SW5       30.26F
Bronx Bot Gard   N/A     66  57  72 E2        30.28S
Wall St Helipt SUNNY     70  63  78 W3        30.27S
Teterboro      CLEAR     66  58  75 CALM      30.25F
$$

NYZ177-179-078>081-240900-
LONG ISLAND NEW YORK

CITY           SKY/WX    TMP DP  RH WIND       PRES   REMARKS
Farmingdale    CLEAR     66  60  81 CALM      30.26F
MacArthur/ISP  CLEAR     66  61  84 SW3       30.25F
Shirley        CLEAR     63  60  90 CALM      30.26F
Riverhead      NOT AVBL
Westhampton    CLEAR     56  53  90 CALM      30.28S
Southampton      N/A     70  66  88 SW2       30.23S
Bridgehampton    N/A     61  59  94 CALM      30.26S
East Hampton   FAIR      56  55  93 CALM      30.26F
Montauk          N/A     69  62  78 SW5       30.27F
$$

NYZ052-065-067-240900-
HUDSON VALLEY

CITY           SKY/WX    TMP DP  RH WIND       PRES   REMARKS
White Plains   CLEAR     63  59  87 NW3       30.26S
Newburgh       NOT AVBL
Montgomery     CLEAR     59  57  93 CALM      30.26F
Poughkeepsie   CLEAR     60  56  86 CALM      30.25S
Albany         PTCLDY    59  56  89 CALM      30.25F
$$

NJZ001-105-106-008-010-013-015-019>022-104-240900-
NEW JERSEY

CITY           SKY/WX    TMP DP  RH WIND       PRES   REMARKS
Newark/Liberty CLEAR     65  58  78 SW5       30.26F
Teterboro      CLEAR     66  58  75 CALM      30.25F
Caldwell         N/A     62  58  86 CALM      30.28S
Morristown     CLEAR     55  55 100 CALM      30.27S
Somerville     PTCLDY    58  56  93 NW3       30.26S
Linden         FAIR      65  58  76 CALM      30.28S
Sussex         CLEAR     56  55  97 CALM      30.27F
Abdover          N/A     56  55  97 CALM      30.28F
Trenton        CLEAR     62  57  83 CALM      30.27S
Millville      CLEAR     58  58 100 CALM      30.28F
Atlantic City  CLEAR     59  55  88 CALM      30.28F
Wrightstown    CLEAR     60  58  90 CALM      30.25F
Toms River     CLEAR     58  56  93 W3        30.28F
Belmar         CLEAR     62  57  83 SW6       30.28S
$$

PAZ047>061-062-071-240900-
EASTERN PENNSYLVANIA

CITY           SKY/WX    TMP DP  RH WIND       PRES   REMARKS
Philadelphia   CLEAR     69  59  70 SW6       30.28F
Allentown      CLEAR     60  56  86 CALM      30.28S
Scranton       CLEAR     60  55  83 E5        30.28S
$$

CTZ002-004>006-009-010-012-RIZ004-006-007-MAZ004-011-015-240900-
SOUTHERN NEW ENGLAND
 IN CT

CITY           SKY/WX    TMP DP  RH WIND       PRES   REMARKS
Bradley INTL   CLEAR     57  54  89 N3        30.26S
Hartford       CLEAR     65  60  84 CALM      30.25S
Danbury        CLEAR     56  54  93 CALM      30.28S
Wtrbury/Oxford   N/A     57  52  82 CALM      30.28S
Bridgeport     PTCLDY    67  61  81 N3        30.26S
Meriden        CLEAR     58  55  90 CALM      30.26S
New Haven      CLEAR     63  60  90 CALM      30.26F
Chester        FAIR      66  63  88 CALM      30.26F
Groton         CLEAR     63  60  90 N3        30.25F
Wilimantic     PTCLDY    58  57  97 CALM      30.27S

 IN RI

CITY           SKY/WX    TMP DP  RH WIND       PRES   REMARKS
Providence     CLEAR     63  58  83 W6        30.25F
Block Island   CLEAR     68  63  84 W9        30.27S
Westerly       CLEAR     61  56  83 CALM      30.26F
 IN MA

CITY           SKY/WX    TMP DP  RH WIND       PRES   REMARKS
Boston         CLEAR     66  57  72 SW9       30.23S
Worcester      CLEAR     61  54  77 W10       30.26F
Westfield      CLEAR     56  55  97 CALM      30.25F
Provincetown   CLEAR     64  61  90 SW7       30.24S
Nantucket      CLEAR     65  61  87 W7        30.25F
$$

ANZ330-335-338-340-345-350-353-355-240900-
COASTAL MARINE OBSERVATIONS


STATION/POSITION TIME  SKY/WX   TEMP    WIND        PRES    VSBY  WAVE
                                AIR SEA DIR/SP/G                  HT/PER
                 (UTC)          (F)     (DEG/KT/KT) (MB)    (MI)  (FT/S)
NY HARB ENTRANCE 0750            72 77  260/ 10/ 12 1024.6          2/ 4
20S FIRE ISLAND  0650            74 76  240/ 10/ 12 1024.9          2/ 3
GREAT SOUTH BAY  0715            73 79  230/  8/ 10   N/A
23 SSW MONTAUK P 0650            74 74  240/ 12/ 14 1025.3          2/ 8
15 E BARNEGAT LI 0700               76                N/A           2/13
HUDSON CANYON    0650            74 77              1025.5          2/ 9
KINGS POINT      0700            71 75              1024.5
EXECUTION ROCKS  0700            72     190/  8/ 10   N/A
CENTRAL LI SOUND 0700            73 74  250/ 12/ 14   N/A           2/ 4
EASTERN LI SOUND 0700            71 70  240/ 10/ 14   N/A
ROBBINS REEF     0700            68     250/  6/  7 1024.3
$$


>>>>>>>>>>>>>>>>>>>>>>>>>>>> KEY <<<<<<<<<<<<<<<<<<<<<<<<<<<
>                                                          <
>     SKY/WX - Sky Condition/Present Weather               <
>     TMP    - Temperature in Fahrenheit                   <
>     DP     - Dew Point in Fahrenheit                     <
>     RH     - Relative Humidity in Percent                <
>     WIND   - Direction (from) and Speed in MPH           <
>     PRES   - Mean Sea Level Pressure (inches of Hg)      <
>     WCI    - Wind Chill Index                            <
>     VSB    - VISIBILITY IN MILES                         <
>     HX     - HEAT INDEX                                  <
>     TC     - TEMPERATURE IN CELSIUS                      <
>     VRB    - VARIABLE WIND DIRECTION                     <
>                                                          <
>>>>>>>>>>>>>>>>>>>>>>>>>>>> KEY <<<<<<<<<<<<<<<<<<<<<<<<<<<



USA.gov is the U.S. government's official web portal to all federal, state and local government web resources and services.